Погода в Шумихе

Погода в Шумихе : погода сейчас, прогноз погоды и архив. Всё, что Вы хотите узнать о погоде в Шумихе!

Хотите узнать прогноз погоды в Шумихе? Тогда Вам сюда: Погода в Шумихе

Поиск расширенной информации на нашем сайте:

Другие новости

Новости СМИ2

Главная страница сайта

Новости сайта

03.07.2017

Напоминаем, что на нашем специализированном сайте Метеоцентр.Азия вы можете получить высокодетализированные автоматические прогнозы погоды по пунктам России, СНГ и мира в авиационном формате (включающие направление и скорость ветра, видимость, явления погоды, количество и форму облачности, нижнюю и верхнюю границу облачности).

Рекомендуем: плитка под кожу

Погода в Шумихе - сегодня

Время (UTC), дата Ветер
(°,м/с) 
Видим.   Явления Облачность Т
(°С)
Тd
(°С)
f(%) Тe
(°С)
Pmin
(гПа)
dP
(гПа)
Po
(мм)
O2
(г/м3)
Тmin Tmax R s Состояние
почвы
18 11.12.17 360 (С) 20000 м  {снег}  6/0 средняя 
[Ac As]
-16 -18.1 84 -16  1033.6  1.5  757  326           
21 11.12.17 тихо ()   20000 м    3/0 верхняя 
[Ci sp]
-18.4 -21 80 -18  1034.8  0.9  758  329           
00 12.12.17 030 (СВ) 4000 м  слаб. снег  10/0 средняя 
[As op]
-14 -16.1 84 -14  1035.2  0.8  758  324           
03 12.12.17 260 (З) 20000 м  {снег}  ясно 
-17.9 -20.4 81 -18  1036.9  0.8  759  329  -18.7    0.2  равномерный
сухой снег
100% 
06 12.12.17 тихо ()   20000 м  {снег}  3/3 600 м 
[Sc]
-15.4 -17.7 83 -15  1037.8  1.1  760  326  -19.5         
09 12.12.17 тихо ()   20000 м    ясно 
-10.3 -13.8 75 -10  1037.7  0.3  761  320           
12 12.12.17 240 (ЮЗ) 20000 м    ясно 
-15.2 -17.2 85 -15  1039.2  1.1  761  326           
15 12.12.17 170 (Ю) 20000 м    ясно 
-18.7 -21.1 81 -19  1040.6  762  331    -9.7       
18 12.12.17 200 (Ю) 20000 м    ясно 
-19.6 -22.3 79 -20  1041.7  763  333           
21 12.12.17 190 (Ю) 20000 м    ясно 
-20.5 -23.3 78 -21  1042.3  0.5  763  334           
00 13.12.17 190 (Ю) 20000 м    ясно 
-19.7 -22.4 79 -20  1042.5  0.3  763  333           
03 13.12.17 190 (Ю) 20000 м    3/0 верхняя 
[Ci sp]
-21.1 -23.9 78 -24  1043  0.3  764  335  -22.5      равномерный
сухой снег
100% 
06 13.12.17 210 (ЮЗ) 20000 м    9/0 средняя, верхняя 
[As trans|Ci sp]
-19.7 -22.4 79 -22  1043.9  1.1  764  334           
09 13.12.17 180 (Ю) 20000 м    9/0 средняя, верхняя 
[As trans|Ci sp]
-17.7 -20.3 80 -20  1043.7  764  331           
12 13.12.17 190 (Ю) 20000 м    9/0 средняя, верхняя 
[As trans|Ci sp]
-19.1 -21.8 79 -22  1043.9  0.1  765  333           
15 13.12.17 200 (Ю) 20000 м    9/0 средняя, верхняя 
[As trans|Ci sp]
-19.4 -22.1 79 -22  1044.2  0.3  765  333    -17.3       
18 13.12.17 200 (Ю) 20000 м    ясно 
-20.2 -23 78 -25  1044.2  0.1  765  334           
21 13.12.17 190 (Ю) 20000 м    ясно 
-20.3 -23.1 78 -23  1043.5  -0.6  764  334           
00 14.12.17 190 (Ю) 20000 м    ясно 
-20.6 -23.4 78 -23  1043.9  0.3  764  335           
06 14.12.17 200 (Ю) 20000 м    9/0 верхняя 
[Ci sp]
-18.6 -21.3 79 -21  1043.9  0.6  765  332           
09 14.12.17 200 (Ю) 20000 м    9/0 верхняя 
[Ci sp]
-15.4 -17.8 82 -19  1042.9  -0.6  764  328           
12 14.12.17 210 (ЮЗ) 20000 м    9/0 средняя, верхняя 
[Ac trans|Ci sp]
-16.3 -18.7 82 -21  1043.1  -0.1  764  329           
15 14.12.17 190 (Ю) 20000 м    9/0 средняя 
[Ac trans]
-18.7 -21.4 79 -23  1043.3  764  332    -15.1       
18 14.12.17 200 (Ю) 20000 м    6/0 средняя 
[Ac trans]
-20.4 -23.3 78 -25  1042.7  -0.8  764  334           
21 14.12.17 200 (Ю) 20000 м    3/0 средняя 
[Ac trans]
-20.1 -22.9 78 -24  1042.4  -0.2  763  334           
Время (UTC), дата Ветер
(°,м/с) 
Видим.   Явления Облачность Т
(°С)
Тd
(°С)
f(%) Тe
(°С)
Pmin
(гПа)
dP
(гПа)
Po
(мм)
O2
(г/м3)
Тmin Tmax R s Состояние
почвы

Для получения пояснительной информации подведите курсор к названию столбца.

ПОГОДА в Шумихе - архив

Всё, что Вы хотите узнать о погоде в Шумихе - удобно и подробно!

Выберите нужную дату (начиная с 1 января 2015* года) и нажмите кнопку "Найти".
Будут отображены архивные сводки погоды по пункту Шумиха, начиная с указанной даты.


Отображать данные в формате CSV (для использования в таблицах Excel)


Внимание! Наш архив погоды предназначен исключительно для личного некоммерческого использования в познавательных целях. Если Вам необходимы официальные справки о состоянии погоды (для производственных, юридических, коммерческих и т.п. целей), обращайтесь в органы Росгидромета.

*Примечание: данная дата относится к архиву по метеостанциям СССР (Россия, СНГ, Балтия).
Архив по метеостанциям Зарубежной Европы и Азии (кроме Китая) хранится 10 дней, по другим регионам земного шара (Китай, Африка, Америка, Австралия, Океания) - 1 день.

Шумиха - район местоположения метеостанции


Название, широта, долгота, высота метеостанции:
Шумиха 55.2°ш. 63.3°д. 178 м над ур. моря [Российская Федерация]

Дополнительная информация

В oтличие oт бoльшинства пoгoдных сайтoв мы публикуем пoдрoбную метеoинфoрмацию в детальнoм прoфессиoнальнoм фoрмате.

Характеристики температуры и влажнoсти вoздуха измеряются на высoте 2 м в тени вдали oт зданий и деревьев.
Скoрoсть ветра измеряется на высoте 10 м (на урoвне рoста челoвека скoрoсть ветра ниже в 1.5-2 раза). Если метеoстанция нахoдится в гoрoде или в лесу, тo скoрoсть ветра занижена на 2-4 м/с пo сравнению с oткрытым местoм. Скoрoсть ветра над акватoриями крупных рек и oзёр, а также на вершинах хoлмoв на 2-5 м/с выше, чем в oбычных услoвиях.
Атмoсфернoе давление в разных тoчках местнoсти мoжет значительнo oтличаться oт давления на метеoстанции, в зависимoсти oт услoвий рельефа (при пoдъёме на 10 м давление пoнижается примернo на 1 мм рт.ст.).